AUA234 LFPG-LOWW

Flight info

Callsign AUA234
Flight time 1h 32m
Altitude 29000
Route RANUX DCT VALEK/N0439F310 DCT LIPNI DCT LIMGO DCT BOMBI DCT BARSU DCT EKSOS DCT LULAR DCT RUDAP DCT BUDEX BUDEX2W
Aircraft MD82/M-SDFGIJ1RWY/S

Departure

Time 2026-04-26 10:41
Airport Charles de Gaulle International Airport (LFPG)

Arrival

Time 2026-04-26 12:14
Airport Vienna International Airport (LOWW)
Time Latitude Longitude Altitude Speed Heading
2026-04-26 10:22 49.00174 2.56223 346 ft 0 kts 343°
2026-04-26 10:33 49.00170 2.56224 346 ft 2 kts 344°
2026-04-26 10:33 49.00156 2.56231 345 ft 2 kts 343°
2026-04-26 10:33 49.00142 2.56237 344 ft 2 kts 343°
2026-04-26 10:34 49.00127 2.56244 344 ft 2 kts 343°
2026-04-26 10:34 49.00118 2.56248 343 ft 1 kts 343°
2026-04-26 10:34 49.00104 2.56258 343 ft 2 kts 313°
2026-04-26 10:34 49.00099 2.56270 342 ft 2 kts 294°
2026-04-26 10:35 49.00095 2.56291 343 ft 0 kts 266°
2026-04-26 10:35 49.00096 2.56302 343 ft 0 kts 264°
2026-04-26 10:36 49.00095 2.56285 342 ft 3 kts 265°
2026-04-26 10:36 49.00092 2.56232 341 ft 6 kts 265°
2026-04-26 10:37 49.00086 2.56144 339 ft 9 kts 265°
2026-04-26 10:37 49.00080 2.56021 336 ft 13 kts 267°
2026-04-26 10:37 49.00074 2.55859 331 ft 17 kts 268°
2026-04-26 10:37 49.00066 2.55672 328 ft 17 kts 251°
2026-04-26 10:38 48.99994 2.55527 322 ft 17 kts 197°
2026-04-26 10:38 48.99907 2.55577 325 ft 10 kts 145°
2026-04-26 10:38 48.99867 2.55634 327 ft 5 kts 129°
2026-04-26 10:38 48.99848 2.55675 328 ft 4 kts 122°
2026-04-26 10:39 48.99831 2.55727 328 ft 6 kts 114°
2026-04-26 10:39 48.99796 2.55808 329 ft 11 kts 154°
2026-04-26 10:39 48.99700 2.55813 331 ft 16 kts 178°
2026-04-26 10:39 48.99606 2.55832 331 ft 5 kts 154°
2026-04-26 10:40 48.99600 2.55848 331 ft 1 kts 92°
2026-04-26 10:40 48.99601 2.55864 331 ft 0 kts 85°
2026-04-26 10:40 48.99601 2.55870 331 ft 4 kts 85°
2026-04-26 10:40 48.99615 2.56133 333 ft 51 kts 85°
2026-04-26 10:41 48.99661 2.56971 341 ft 107 kts 86°
2026-04-26 10:41 48.99737 2.58399 338 ft 161 kts 86°
2026-04-26 10:41 48.99805 2.60183 762 ft 178 kts 86°
2026-04-26 10:41 48.99944 2.62070 1479 ft 184 kts 77°
2026-04-26 10:42 49.00326 2.63939 2177 ft 191 kts 68°
2026-04-26 10:42 49.00957 2.65769 2820 ft 202 kts 58°
2026-04-26 10:42 49.01796 2.67541 3420 ft 213 kts 59°
2026-04-26 10:42 49.02067 2.69821 3786 ft 239 kts 99°
2026-04-26 10:43 49.01500 2.72339 4206 ft 263 kts 108°
2026-04-26 10:43 49.01141 2.74994 5302 ft 258 kts 96°
2026-04-26 10:43 49.01019 2.77772 6020 ft 270 kts 90°
2026-04-26 10:43 49.01030 2.80556 7084 ft 266 kts 88°
2026-04-26 10:44 49.01109 2.83442 7722 ft 279 kts 86°
2026-04-26 10:44 49.01223 2.86322 8740 ft 276 kts 85°
2026-04-26 10:44 49.01357 2.89287 9302 ft 289 kts 85°
2026-04-26 10:44 49.01500 2.92273 10298 ft 285 kts 84°
2026-04-26 10:45 49.01754 2.95331 10675 ft 302 kts 76°
2026-04-26 10:45 49.02165 2.98586 11071 ft 320 kts 78°
2026-04-26 10:45 49.02571 3.01980 11436 ft 338 kts 78°
2026-04-26 10:45 49.02991 3.05561 12003 ft 348 kts 78°
2026-04-26 10:46 49.03405 3.09135 13089 ft 341 kts 78°
2026-04-26 10:46 49.03821 3.12734 13354 ft 359 kts 79°
2026-04-26 10:46 49.04244 3.16420 14347 ft 352 kts 78°
2026-04-26 10:46 49.04668 3.20116 14884 ft 361 kts 78°
2026-04-26 10:47 49.05103 3.23919 15423 ft 366 kts 78°
2026-04-26 10:47 49.05533 3.27703 16140 ft 368 kts 78°
2026-04-26 10:47 49.05974 3.31581 16544 ft 376 kts 78°
2026-04-26 10:47 49.06413 3.35458 17314 ft 374 kts 78°
2026-04-26 10:48 49.06859 3.39407 17633 ft 383 kts 78°
2026-04-26 10:48 49.07306 3.43383 18416 ft 380 kts 78°
2026-04-26 10:48 49.07759 3.47419 18686 ft 390 kts 78°
2026-04-26 10:48 49.08202 3.51399 19449 ft 386 kts 78°
2026-04-26 10:49 49.08653 3.55504 19693 ft 396 kts 80°
2026-04-26 10:49 49.08929 3.59635 20374 ft 394 kts 82°
2026-04-26 10:49 49.09213 3.63837 20588 ft 403 kts 82°
2026-04-26 10:49 49.09493 3.68011 21306 ft 398 kts 82°
2026-04-26 10:50 49.09779 3.72276 21462 ft 408 kts 82°
2026-04-26 10:50 49.10064 3.76545 22146 ft 404 kts 82°
2026-04-26 10:50 49.10348 3.80830 22289 ft 414 kts 82°
2026-04-26 10:50 49.10630 3.85114 22926 ft 409 kts 82°
2026-04-26 10:51 49.10919 3.89488 23075 ft 418 kts 82°
2026-04-26 10:51 49.11490 3.98261 23812 ft 423 kts 82°
2026-04-26 10:51 49.11777 4.02707 24364 ft 420 kts 82°
2026-04-26 10:52 49.12060 4.07115 24534 ft 427 kts 82°
2026-04-26 10:52 49.12345 4.11604 25000 ft 425 kts 82°
2026-04-26 10:52 49.12631 4.16099 25259 ft 429 kts 82°
2026-04-26 10:52 49.12915 4.20627 25562 ft 431 kts 82°
2026-04-26 10:53 49.13200 4.25184 25861 ft 434 kts 81°
2026-04-26 10:53 49.13485 4.29763 26175 ft 435 kts 82°
2026-04-26 10:53 49.13770 4.34353 26469 ft 437 kts 81°
2026-04-26 10:54 49.15724 4.42978 26984 ft 432 kts 64°
2026-04-26 10:54 49.16879 4.47194 27131 ft 436 kts 64°
2026-04-26 10:54 49.18040 4.51457 27485 ft 436 kts 64°
2026-04-26 10:54 49.19204 4.55748 27638 ft 440 kts 64°
2026-04-26 10:55 49.20372 4.60066 27978 ft 439 kts 64°
2026-04-26 10:55 49.21539 4.64387 28145 ft 443 kts 64°
2026-04-26 10:55 49.22715 4.68753 28402 ft 443 kts 64°
2026-04-26 10:55 49.23889 4.73121 28552 ft 446 kts 64°
2026-04-26 10:56 49.25061 4.77487 28962 ft 443 kts 64°
2026-04-26 10:56 49.26232 4.81862 29139 ft 445 kts 64°
2026-04-26 10:56 49.27397 4.86220 29475 ft 442 kts 64°
2026-04-26 10:56 49.28570 4.90617 29691 ft 443 kts 64°
2026-04-26 10:57 49.29718 4.94927 29915 ft 442 kts 64°
2026-04-26 10:57 49.30876 4.99286 30179 ft 442 kts 64°
2026-04-26 10:57 49.32027 5.03622 30320 ft 443 kts 64°
2026-04-26 10:57 49.33183 5.07993 30568 ft 442 kts 64°
2026-04-26 10:58 49.34340 5.12367 30705 ft 443 kts 64°
2026-04-26 10:58 49.35489 5.16724 30957 ft 441 kts 64°
2026-04-26 10:58 49.36638 5.21090 31115 ft 441 kts 64°
2026-04-26 10:58 49.37771 5.25402 31236 ft 442 kts 64°
2026-04-26 10:59 49.40073 5.34187 31242 ft 448 kts 64°
2026-04-26 10:59 49.42403 5.43112 31242 ft 453 kts 65°
2026-04-26 11:00 49.44729 5.52060 31239 ft 456 kts 65°
2026-04-26 11:00 49.47071 5.61104 31241 ft 457 kts 65°
2026-04-26 11:01 49.49414 5.70184 31243 ft 458 kts 66°
2026-04-26 11:01 49.51754 5.79237 31243 ft 458 kts 64°
2026-04-26 11:02 49.53937 5.88395 31237 ft 458 kts 66°
2026-04-26 11:02 49.56204 5.97507 31251 ft 458 kts 66°
2026-04-26 11:03 49.58468 6.06682 31250 ft 458 kts 66°
2026-04-26 11:03 49.60708 6.15806 31250 ft 459 kts 67°
2026-04-26 11:04 49.62952 6.24985 31250 ft 459 kts 67°
2026-04-26 11:04 49.64858 6.34396 31263 ft 461 kts 72°
2026-04-26 11:05 49.66538 6.43921 31251 ft 462 kts 72°
2026-04-26 11:05 49.68212 6.53412 31250 ft 462 kts 72°
2026-04-26 11:06 49.69896 6.62988 31251 ft 462 kts 72°
2026-04-26 11:06 49.71555 6.72472 31248 ft 462 kts 73°
2026-04-26 11:07 49.73225 6.82067 31246 ft 463 kts 73°
2026-04-26 11:07 49.74883 6.91646 31251 ft 462 kts 73°
2026-04-26 11:08 49.76529 7.01210 31254 ft 463 kts 74°
2026-04-26 11:08 49.78169 7.10788 31256 ft 463 kts 74°
2026-04-26 11:09 49.79805 7.20399 31266 ft 463 kts 73°
2026-04-26 11:09 49.81427 7.29979 31271 ft 464 kts 74°
2026-04-26 11:10 49.83052 7.39626 31267 ft 464 kts 74°
2026-04-26 11:10 49.84668 7.49279 31262 ft 465 kts 74°
2026-04-26 11:11 49.86277 7.58940 31259 ft 466 kts 74°
2026-04-26 11:11 49.87885 7.68653 31252 ft 466 kts 75°
2026-04-26 11:12 49.89478 7.78331 31253 ft 467 kts 75°
2026-04-26 11:12 49.91067 7.88044 31258 ft 467 kts 75°
2026-04-26 11:13 49.92656 7.97808 31259 ft 467 kts 75°
2026-04-26 11:13 49.94238 8.07582 31261 ft 467 kts 75°
2026-04-26 11:14 49.95802 8.17306 31270 ft 467 kts 75°
2026-04-26 11:14 49.97355 8.27017 31281 ft 467 kts 75°
2026-04-26 11:15 49.98912 8.36818 31281 ft 468 kts 76°
2026-04-26 11:15 50.00463 8.46632 31284 ft 468 kts 76°
2026-04-26 11:16 50.02001 8.56427 31286 ft 469 kts 76°
2026-04-26 11:16 50.03531 8.66222 31276 ft 469 kts 76°
2026-04-26 11:17 50.05056 8.76052 31262 ft 470 kts 77°
2026-04-26 11:17 50.05594 8.81015 31233 ft 467 kts 90°
2026-04-26 11:17 50.05266 8.86002 31278 ft 464 kts 99°
2026-04-26 11:18 50.04431 8.95962 31266 ft 467 kts 98°
2026-04-26 11:18 50.03618 9.05993 31255 ft 469 kts 98°
2026-04-26 11:19 50.02810 9.15967 31261 ft 469 kts 98°
2026-04-26 11:19 50.01989 9.26025 31256 ft 469 kts 98°
2026-04-26 11:20 50.01305 9.34319 31261 ft 469 kts 98°
2026-04-26 11:20 50.00329 9.46048 31248 ft 470 kts 98°
2026-04-26 11:21 49.99483 9.56095 31245 ft 470 kts 98°
2026-04-26 11:21 49.98631 9.66115 31250 ft 470 kts 99°
2026-04-26 11:22 49.97769 9.76135 31261 ft 470 kts 99°
2026-04-26 11:22 49.96896 9.86187 31255 ft 470 kts 99°
2026-04-26 11:23 49.96019 9.96174 31270 ft 470 kts 99°
2026-04-26 11:23 49.95132 10.06175 31265 ft 470 kts 99°
2026-04-26 11:24 49.94233 10.16216 31270 ft 471 kts 99°
2026-04-26 11:24 49.93325 10.26259 31265 ft 471 kts 99°
2026-04-26 11:25 49.92408 10.36290 31268 ft 472 kts 99°
2026-04-26 11:25 49.91676 10.41180 31234 ft 467 kts 113°
2026-04-26 11:25 49.90434 10.45820 31295 ft 467 kts 113°
2026-04-26 11:26 49.88006 10.55103 31242 ft 469 kts 113°
2026-04-26 11:26 49.85566 10.64480 31254 ft 471 kts 113°
2026-04-26 11:27 49.83116 10.73879 31252 ft 472 kts 114°
2026-04-26 11:27 49.80662 10.83261 31251 ft 472 kts 114°
2026-04-26 11:28 49.78194 10.92665 31247 ft 473 kts 114°
2026-04-26 11:28 49.75722 11.02041 31251 ft 474 kts 114°
2026-04-26 11:29 49.73235 11.11438 31245 ft 474 kts 114°
2026-04-26 11:29 49.70739 11.20828 31242 ft 475 kts 114°
2026-04-26 11:30 49.68648 11.28667 31241 ft 475 kts 113°
2026-04-26 11:30 49.65718 11.39607 31238 ft 476 kts 113°
2026-04-26 11:31 49.63626 11.49243 31243 ft 477 kts 108°
2026-04-26 11:31 49.61619 11.59013 31239 ft 477 kts 108°
2026-04-26 11:32 49.59608 11.68675 31239 ft 477 kts 109°
2026-04-26 11:32 49.57572 11.78390 31230 ft 478 kts 109°
2026-04-26 11:33 49.55529 11.88090 31236 ft 478 kts 109°
2026-04-26 11:33 49.53477 11.97781 31231 ft 478 kts 109°
2026-04-26 11:34 49.51420 12.07450 31231 ft 479 kts 109°
2026-04-26 11:34 49.49347 12.17149 31226 ft 479 kts 108°
2026-04-26 11:35 49.47266 12.26835 31226 ft 479 kts 109°
2026-04-26 11:35 49.45174 12.36529 31229 ft 479 kts 108°
2026-04-26 11:36 49.43088 12.46149 31224 ft 479 kts 108°
2026-04-26 11:36 49.40983 12.55814 31222 ft 479 kts 108°
2026-04-26 11:37 49.38862 12.65506 31217 ft 479 kts 109°
2026-04-26 11:37 49.36740 12.75155 31216 ft 479 kts 109°
2026-04-26 11:38 49.34476 12.84755 31223 ft 478 kts 111°
2026-04-26 11:38 49.32108 12.94268 31212 ft 478 kts 111°
2026-04-26 11:39 49.29777 13.03712 31208 ft 478 kts 111°
2026-04-26 11:39 49.27420 13.13255 31210 ft 479 kts 111°
2026-04-26 11:40 49.25048 13.22824 31209 ft 479 kts 111°
2026-04-26 11:40 49.22687 13.32202 31210 ft 463 kts 113°
2026-04-26 11:41 49.21442 13.36704 31195 ft 447 kts 112°
2026-04-26 11:42 49.12985 13.67830 31217 ft 456 kts 113°
2026-04-26 11:43 49.10549 13.76757 31224 ft 457 kts 113°
2026-04-26 11:43 49.08122 13.85624 31223 ft 456 kts 113°
2026-04-26 11:44 49.05679 13.94512 31225 ft 457 kts 113°
2026-04-26 11:44 49.03222 14.03418 31230 ft 456 kts 113°
2026-04-26 11:45 49.00760 14.12308 31233 ft 456 kts 113°
2026-04-26 11:45 48.98290 14.21198 30913 ft 459 kts 113°
2026-04-26 11:46 48.97041 14.25676 30568 ft 460 kts 113°
2026-04-26 11:46 48.95808 14.30095 30140 ft 460 kts 113°
2026-04-26 11:46 48.94396 14.34463 29641 ft 459 kts 125°
2026-04-26 11:46 48.92471 14.38280 29260 ft 460 kts 128°
2026-04-26 11:47 48.90519 14.42151 28781 ft 463 kts 128°
2026-04-26 11:47 48.88554 14.46043 28296 ft 465 kts 128°
2026-04-26 11:47 48.86611 14.49886 27822 ft 463 kts 128°
2026-04-26 11:47 48.84660 14.53738 27363 ft 458 kts 127°
2026-04-26 11:48 48.82738 14.57531 26880 ft 455 kts 127°
2026-04-26 11:48 48.80808 14.61332 26419 ft 452 kts 127°
2026-04-26 11:48 48.78905 14.65074 25960 ft 450 kts 128°
2026-04-26 11:48 48.77010 14.68797 25496 ft 449 kts 128°
2026-04-26 11:49 48.75108 14.72527 25039 ft 446 kts 128°
2026-04-26 11:49 48.73204 14.76257 24586 ft 443 kts 128°
2026-04-26 11:49 48.71350 14.79880 24138 ft 441 kts 128°
2026-04-26 11:49 48.69480 14.83530 23705 ft 439 kts 128°
2026-04-26 11:50 48.67603 14.87190 23258 ft 437 kts 127°
2026-04-26 11:50 48.65747 14.90801 22817 ft 435 kts 127°
2026-04-26 11:50 48.63925 14.94341 22384 ft 431 kts 127°
2026-04-26 11:50 48.62082 14.97920 21947 ft 429 kts 127°
2026-04-26 11:51 48.60254 15.01465 21515 ft 426 kts 127°
2026-04-26 11:51 48.58715 15.05222 21093 ft 418 kts 108°
2026-04-26 11:51 48.58236 15.09410 20872 ft 406 kts 84°
2026-04-26 11:51 48.58552 15.13634 20659 ft 407 kts 79°
2026-04-26 11:52 48.58537 15.17905 20057 ft 419 kts 99°
2026-04-26 11:52 48.57655 15.22064 19618 ft 413 kts 106°
2026-04-26 11:52 48.56676 15.26121 19140 ft 406 kts 107°
2026-04-26 11:52 48.55688 15.30015 18699 ft 399 kts 107°
2026-04-26 11:53 48.54673 15.33903 18140 ft 395 kts 108°
2026-04-26 11:53 48.53674 15.37663 17717 ft 388 kts 108°
2026-04-26 11:53 48.52669 15.41409 17286 ft 381 kts 108°
2026-04-26 11:54 48.51732 15.48738 16954 ft 339 kts 89°
2026-04-26 11:54 48.51541 15.52180 16949 ft 320 kts 88°
2026-04-26 11:54 48.51359 15.55445 16869 ft 304 kts 88°
2026-04-26 11:54 48.51187 15.58496 16822 ft 287 kts 88°
2026-04-26 11:55 48.51022 15.61393 16782 ft 271 kts 87°
2026-04-26 11:55 48.50867 15.64127 16728 ft 254 kts 87°
2026-04-26 11:55 48.50721 15.66673 16656 ft 239 kts 87°
2026-04-26 11:55 48.50579 15.69099 16544 ft 225 kts 87°
2026-04-26 11:56 48.50051 15.71398 15781 ft 258 kts 125°
2026-04-26 11:56 48.48721 15.73316 15194 ft 261 kts 130°
2026-04-26 11:56 48.47489 15.75206 15470 ft 256 kts 134°
2026-04-26 11:56 48.46194 15.77118 15760 ft 267 kts 134°
2026-04-26 11:57 48.44849 15.79072 16090 ft 276 kts 134°
2026-04-26 11:57 48.43446 15.81083 16292 ft 284 kts 134°
2026-04-26 11:57 48.41975 15.83173 16441 ft 299 kts 135°
2026-04-26 11:57 48.40428 15.85357 16575 ft 315 kts 135°
2026-04-26 11:58 48.38774 15.87678 16670 ft 334 kts 135°
2026-04-26 11:58 48.37060 15.90075 16719 ft 343 kts 135°
2026-04-26 11:58 48.35334 15.92477 16685 ft 335 kts 135°
2026-04-26 11:58 48.33646 15.94828 16632 ft 329 kts 135°
2026-04-26 11:59 48.31976 15.97151 16596 ft 322 kts 135°
2026-04-26 11:59 48.30356 15.99397 16571 ft 314 kts 135°
2026-04-26 11:59 48.28773 16.01588 16549 ft 306 kts 135°
2026-04-26 11:59 48.27184 16.03788 16460 ft 326 kts 135°
2026-04-26 12:00 48.25410 16.06240 16024 ft 368 kts 136°
2026-04-26 12:00 48.23443 16.08954 15821 ft 398 kts 136°
2026-04-26 12:00 48.21365 16.11817 15707 ft 407 kts 136°
2026-04-26 12:00 48.19304 16.14654 15212 ft 410 kts 136°
2026-04-26 12:01 48.17213 16.17527 14740 ft 402 kts 136°
2026-04-26 12:01 48.15165 16.20341 14243 ft 396 kts 136°
2026-04-26 12:01 48.13183 16.23060 13765 ft 390 kts 136°
2026-04-26 12:01 48.11191 16.25790 13280 ft 387 kts 136°
2026-04-26 12:02 48.09206 16.28508 12797 ft 385 kts 136°
2026-04-26 12:02 48.07252 16.31180 12242 ft 386 kts 136°
2026-04-26 12:02 48.05343 16.33785 11293 ft 356 kts 136°
2026-04-26 12:02 48.03607 16.36156 10553 ft 331 kts 136°
2026-04-26 12:03 48.01875 16.38519 9845 ft 340 kts 137°
2026-04-26 12:03 48.00133 16.40891 9138 ft 347 kts 137°
2026-04-26 12:03 47.98339 16.43333 8422 ft 352 kts 137°
2026-04-26 12:03 47.96536 16.45782 7774 ft 353 kts 137°
2026-04-26 12:04 47.94703 16.48271 7029 ft 357 kts 137°
2026-04-26 12:04 47.92900 16.50718 6378 ft 356 kts 137°
2026-04-26 12:04 47.91043 16.53173 5622 ft 358 kts 143°
2026-04-26 12:04 47.88792 16.54686 4880 ft 355 kts 167°
2026-04-26 12:05 47.86439 16.55622 4195 ft 354 kts 165°
2026-04-26 12:05 47.84106 16.56684 3680 ft 347 kts 155°
2026-04-26 12:05 47.82245 16.58817 3172 ft 338 kts 126°
2026-04-26 12:05 47.81342 16.61866 2995 ft 311 kts 94°
2026-04-26 12:06 47.81498 16.64903 2997 ft 282 kts 74°
2026-04-26 12:06 47.82064 16.67553 2767 ft 266 kts 53°
2026-04-26 12:06 47.83450 16.69192 2727 ft 253 kts 15°
2026-04-26 12:06 47.85090 16.69218 2878 ft 225 kts 342°
2026-04-26 12:07 47.86490 16.68592 3018 ft 197 kts 343°
2026-04-26 12:07 47.87740 16.68056 3095 ft 177 kts 343°
2026-04-26 12:07 47.88890 16.67565 3118 ft 166 kts 343°
2026-04-26 12:07 47.90015 16.67086 3088 ft 167 kts 343°
2026-04-26 12:08 47.91094 16.66628 3128 ft 165 kts 343°
2026-04-26 12:08 47.92190 16.66164 3113 ft 165 kts 344°
2026-04-26 12:08 47.93235 16.65723 3113 ft 144 kts 344°
2026-04-26 12:08 47.94112 16.65354 3100 ft 116 kts 344°
2026-04-26 12:09 47.94854 16.65041 2975 ft 113 kts 343°
2026-04-26 12:09 47.95681 16.64692 3136 ft 125 kts 344°
2026-04-26 12:09 47.96546 16.64329 3061 ft 129 kts 343°
2026-04-26 12:09 47.97360 16.63987 2902 ft 115 kts 343°
2026-04-26 12:10 47.98100 16.63675 2747 ft 108 kts 343°
2026-04-26 12:10 47.98835 16.63364 2603 ft 110 kts 344°
2026-04-26 12:10 47.99556 16.63062 2464 ft 106 kts 345°
2026-04-26 12:10 48.00282 16.62757 2330 ft 108 kts 342°
2026-04-26 12:11 48.00995 16.62454 2172 ft 110 kts 345°
2026-04-26 12:11 48.01721 16.62149 2019 ft 109 kts 346°
2026-04-26 12:11 48.02453 16.61844 1895 ft 107 kts 344°
2026-04-26 12:11 48.03171 16.61540 1683 ft 108 kts 346°
2026-04-26 12:12 48.03896 16.61223 1531 ft 108 kts 344°
2026-04-26 12:12 48.04619 16.60921 1388 ft 109 kts 342°
2026-04-26 12:12 48.05354 16.60604 1274 ft 108 kts 345°
2026-04-26 12:12 48.05839 16.60410 1168 ft 109 kts 344°
2026-04-26 12:13 48.06830 16.60003 1001 ft 114 kts 343°
2026-04-26 12:13 48.07624 16.59667 909 ft 119 kts 343°
2026-04-26 12:13 48.08417 16.59327 713 ft 117 kts 345°
2026-04-26 12:13 48.09185 16.58996 588 ft 109 kts 347°
2026-04-26 12:14 48.09738 16.58767 595 ft 48 kts 343°
2026-04-26 12:14 48.09930 16.58681 597 ft 23 kts 339°
2026-04-26 12:14 48.10037 16.58532 597 ft 19 kts 305°
2026-04-26 12:14 48.10105 16.58377 600 ft 15 kts 300°
2026-04-26 12:15 48.10174 16.58301 601 ft 11 kts 341°
2026-04-26 12:15 48.10249 16.58269 602 ft 11 kts 345°
2026-04-26 12:15 48.10323 16.58237 603 ft 10 kts 344°
2026-04-26 12:15 48.10390 16.58208 602 ft 10 kts 344°
2026-04-26 12:16 48.10471 16.58174 601 ft 13 kts 346°
2026-04-26 12:16 48.10566 16.58137 600 ft 15 kts 344°
2026-04-26 12:16 48.10682 16.58085 599 ft 19 kts 344°
2026-04-26 12:16 48.10823 16.58026 597 ft 22 kts 345°
2026-04-26 12:17 48.10986 16.57959 595 ft 26 kts 346°
2026-04-26 12:17 48.11113 16.57850 595 ft 12 kts 297°
2026-04-26 12:17 48.11153 16.57729 594 ft 14 kts 296°
2026-04-26 12:17 48.11200 16.57588 596 ft 15 kts 296°
2026-04-26 12:18 48.11246 16.57448 598 ft 15 kts 296°
2026-04-26 12:18 48.11293 16.57304 601 ft 15 kts 297°
2026-04-26 12:18 48.11339 16.57164 604 ft 15 kts 296°
2026-04-26 12:18 48.11408 16.57116 604 ft 13 kts 34°
2026-04-26 12:19 48.11495 16.57187 603 ft 15 kts 28°
2026-04-26 12:19 48.11566 16.57239 602 ft 4 kts 26°